Plymouth, MA

5:14 PM EST on November 19, 2017 (GMT -0500)
Plymouth Municipal

Weather History for KPYM - June, 2013

Change the Weather History Date:

Tuesday, June 18, 2013

  Actual Average Record
Temperature  
Mean Temperature 66 °F -  
Max Temperature 75 °F 77 °F 90 °F (1981)
Min Temperature 59 °F 56 °F 40 °F (1965)
Cooling Degree Days 1    
Growing Degree Days 16 (Base 50)    
Moisture  
Dew Point 58 °F    
Average Humidity 81    
Maximum Humidity 93    
Minimum Humidity 64    
Precipitation  
Precipitation 0.05 in - - ()
Sea Level Pressure  
Sea Level Pressure 29.92 in    
Wind  
Wind Speed 4 mph (NE)    
Max Wind Speed 16 mph    
Max Gust Speed 23 mph    
Visibility 9 miles    
Events Rain    
Averages and records for this station are not official NWS values.
T = Trace of Precipitation, MM = Missing Value Source: NWS Daily Summary

Daily Weather History Graph

Daily Weather History Graph

Search for Another Location

Airport or City:

Trip Planner

Search our weather history database for the weather conditions in past years. The results will help you decide how hot, cold, wet, or windy it might be!

Date:

Astronomy

Jun. 18, 2013 Rise Set
Actual Time 5:07 AM EDT 8:21 PM EDT
Civil Twilight 4:32 AM EDT 8:55 PM EDT
Nautical Twilight 3:48 AM EDT 9:39 PM EDT
Astronomical Twilight 2:55 AM EDT 10:33 PM EDT
Moon 2:58 PM EDT (6/18) 1:18 AM EDT (6/18)
Length of Visible Light 16h 22m
Length of Day
15h 13m
Waxing Gibbous, 70% of the Moon is Illuminated
Jun 18
Waxing Gibbous
Jun 23
Full
Jun 30
Last Quarter
Jul 8
New
Jul 15
First Quarter

Hourly Weather History & Observations

Time (EDT) Temp. Dew Point Humidity Pressure Visibility Wind Dir Wind Speed Gust Speed Precip Events Conditions
12:52 AM 62.1 °F 59.0 °F 90% 29.91 in 9.0 mi Calm Calm - N/A   Clear
1:52 AM 61.0 °F 57.9 °F 90% 29.90 in 9.0 mi Calm Calm - N/A   Clear
2:52 AM 59.0 °F 57.0 °F 93% 29.90 in 6.0 mi Calm Calm - N/A   Clear
3:52 AM 59.0 °F 55.9 °F 90% 29.90 in 9.0 mi Calm Calm - N/A   Clear
4:52 AM 59.0 °F 55.9 °F 90% 29.91 in 4.0 mi Calm Calm - N/A   Clear
5:52 AM 59.0 °F 55.9 °F 90% 29.91 in 10.0 mi Calm Calm - N/A   Clear
6:52 AM 63.0 °F 59.0 °F 87% 29.92 in 10.0 mi Calm Calm - N/A   Clear
7:52 AM 66.0 °F 62.1 °F 87% 29.94 in 10.0 mi Calm Calm - N/A   Clear
8:52 AM 70.0 °F 62.1 °F 76% 29.94 in 10.0 mi North 3.5 mph - N/A   Clear
9:52 AM 73.0 °F 62.1 °F 68% 29.94 in 10.0 mi ENE 4.6 mph - N/A   Scattered Clouds
10:52 AM 73.0 °F 61.0 °F 66% 29.93 in 10.0 mi NE 8.1 mph - N/A   Clear
11:52 AM 72.0 °F 60.1 °F 66% 29.92 in 10.0 mi ENE 8.1 mph - N/A   Clear
12:52 PM 73.0 °F 60.1 °F 64% 29.92 in 10.0 mi ENE 8.1 mph - N/A   Clear
1:52 PM 73.9 °F 61.0 °F 64% 29.90 in 10.0 mi NE 8.1 mph - N/A   Clear
2:52 PM 69.1 °F 59.0 °F 70% 29.89 in 10.0 mi NE 13.8 mph - N/A   Partly Cloudy
3:52 PM 64.9 °F 57.9 °F 78% 29.92 in 10.0 mi NE 12.7 mph - N/A   Overcast
4:52 PM 63.0 °F 55.0 °F 75% 29.93 in 10.0 mi NNE 16.1 mph 23.0 mph N/A   Overcast
5:52 PM 61.0 °F 55.0 °F 81% 29.93 in 10.0 mi NNE 12.7 mph - 0.01 in   Overcast
6:52 PM 61.0 °F 55.0 °F 81% 29.91 in 10.0 mi NNE 11.5 mph - N/A   Clear
7:15 PM 60.8 °F 55.4 °F 82% 29.89 in 10.0 mi NE 9.2 mph - N/A   Partly Cloudy
7:52 PM 60.1 °F 54.0 °F 80% 29.90 in 10.0 mi NE 5.8 mph - N/A   Clear
8:52 PM 60.1 °F 55.0 °F 83% 29.91 in 10.0 mi East 9.2 mph - 0.00 in   Mostly Cloudy
9:52 PM 60.1 °F 55.0 °F 83% 29.93 in 10.0 mi North 6.9 mph - 0.00 in   Mostly Cloudy
9:59 PM 60.8 °F 55.4 °F 82% 29.93 in 10.0 mi North 4.6 mph - N/A   Mostly Cloudy
10:52 PM 60.1 °F 55.9 °F 86% 29.92 in 8.0 mi NNE 4.6 mph - 0.01 in Rain Light Rain
11:28 PM 59.0 °F 55.4 °F 88% 29.91 in 9.0 mi North 5.8 mph - 0.02 in Rain Light Rain
11:52 PM 59.0 °F 55.9 °F 90% 29.90 in 10.0 mi NNE 5.8 mph - 0.03 in Rain Light Rain